Tiempo cada hora Málaga

Hoy, 2 Agosto, Lunes

Tiempo Temperatura Precipitaciones Viento Presión Humedad
00:00 +25°C° 0 mm 2 mps 758 mmHg 31%
01:00 +25°C° 0 mm 2 mps 758 mmHg 31%
02:00 +25°C° 0 mm 1 mps 758 mmHg 32%
03:00 +24°C° 0 mm 1 mps 758 mmHg 32%
04:00 +24°C° 0 mm 1 mps 758 mmHg 34%
05:00 +24°C° 0 mm 1 mps 758 mmHg 36%
06:00 +24°C° 0 mm 1 mps 758 mmHg 39%
07:00 +26°C° 0 mm 2 mps 758 mmHg 35%
08:00 +27°C° 0 mm 2 mps 758 mmHg 32%
09:00 +29°C° 0 mm 2 mps 758 mmHg 29%
10:00 +29°C° 0 mm 3 mps 759 mmHg 33%
11:00 +30°C° 0 mm 3 mps 759 mmHg 37%
12:00 +30°C° 0 mm 3 mps 759 mmHg 41%
13:00 +30°C° 0 mm 3 mps 759 mmHg 43%
14:00 +30°C° 0 mm 3 mps 758 mmHg 44%
15:00 +31°C° 0 mm 3 mps 758 mmHg 46%
16:00 +30°C° 0 mm 3 mps 758 mmHg 49%
17:00 +30°C° 0 mm 3 mps 758 mmHg 52%
18:00 +29°C° 0 mm 3 mps 758 mmHg 54%
19:00 +28°C° 0 mm 2 mps 758 mmHg 63%
20:00 +26°C° 0 mm 1 mps 759 mmHg 72%
21:00 +24°C° 0 mm 1 mps 760 mmHg 80%
22:00 +24°C° 0 mm 1 mps 760 mmHg 82%
23:00 +24°C° 0 mm 1 mps 760 mmHg 85%

Mañana, 3 Agosto, Martes

Tiempo Temperatura Precipitaciones Viento Presión Humedad
00:00 +23°C° 0 mm 1 mps 760 mmHg 87%
01:00 +23°C° 0 mm 1 mps 760 mmHg 87%
02:00 +23°C° 0 mm 2 mps 760 mmHg 87%
03:00 +23°C° 0 mm 2 mps 760 mmHg 87%
04:00 +23°C° 0 mm 2 mps 760 mmHg 86%
05:00 +23°C° 0 mm 1 mps 760 mmHg 85%
06:00 +23°C° 0 mm 1 mps 760 mmHg 83%
07:00 +25°C° 0 mm 1 mps 760 mmHg 74%
08:00 +27°C° 0 mm 2 mps 760 mmHg 65%
09:00 +29°C° 0 mm 2 mps 760 mmHg 55%
10:00 +30°C° 0 mm 2 mps 760 mmHg 52%
11:00 +31°C° 0 mm 3 mps 760 mmHg 49%
12:00 +33°C° 0 mm 3 mps 760 mmHg 46%
13:00 +33°C° 0 mm 3 mps 759 mmHg 46%
14:00 +34°C° 0 mm 3 mps 759 mmHg 45%
15:00 +34°C° 0 mm 3 mps 759 mmHg 45%
16:00 +33°C° 0 mm 3 mps 759 mmHg 48%
17:00 +31°C° 0 mm 2 mps 759 mmHg 52%
18:00 +29°C° 0 mm 2 mps 759 mmHg 56%
19:00 +28°C° 0 mm 2 mps 759 mmHg 60%
20:00 +27°C° 0 mm 1 mps 759 mmHg 64%
21:00 +26°C° 0 mm 1 mps 760 mmHg 68%
22:00 +26°C° 0 mm 1 mps 759 mmHg 65%
23:00 +26°C° 0 mm 1 mps 759 mmHg 62%

Pasado mañana, 4 Agosto, Miércoles

Tiempo Temperatura Precipitaciones Viento Presión Humedad
00:00 +26°C° 0 mm 1 mps 759 mmHg 60%
01:00 +26°C° 0 mm 1 mps 759 mmHg 60%
02:00 +25°C° 0 mm 1 mps 759 mmHg 60%
03:00 +25°C° 0 mm 1 mps 758 mmHg 61%
04:00 +25°C° 0 mm 1 mps 758 mmHg 59%
05:00 +25°C° 0 mm 1 mps 758 mmHg 58%
06:00 +26°C° 0 mm 2 mps 758 mmHg 56%
07:00 +28°C° 0 mm 2 mps 758 mmHg 49%
08:00 +30°C° 0 mm 2 mps 758 mmHg 42%
09:00 +33°C° 0 mm 3 mps 758 mmHg 34%
10:00 +35°C° 0 mm 3 mps 758 mmHg 31%
11:00 +36°C° 0 mm 4 mps 758 mmHg 28%
12:00 +38°C° 0 mm 4 mps 758 mmHg 25%
13:00 +38°C° 0 mm 4 mps 757 mmHg 24%
14:00 +38°C° 0 mm 4 mps 757 mmHg 24%
15:00 +40°C° 0 mm 4 mps 757 mmHg 24%
16:00 +38°C° 0 mm 4 mps 757 mmHg 24%
17:00 +38°C° 0 mm 3 mps 757 mmHg 24%
18:00 +37°C° 0 mm 3 mps 757 mmHg 24%
19:00 +36°C° 0 mm 3 mps 757 mmHg 26%
20:00 +35°C° 0 mm 3 mps 758 mmHg 28%
21:00 +33°C° 0 mm 3 mps 758 mmHg 30%
22:00 +31°C° 0 mm 3 mps 758 mmHg 33%
23:00 +31°C° 0 mm 2 mps 758 mmHg 35%

5 Agosto, Jueves

Tiempo Temperatura Precipitaciones Viento Presión Humedad
00:00 +30°C° 0 mm 2 mps 758 mmHg 37%
01:00 +30°C° 0 mm 2 mps 758 mmHg 39%
02:00 +29°C° 0 mm 2 mps 758 mmHg 41%
03:00 +29°C° 0 mm 2 mps 758 mmHg 43%
04:00 +28°C° 0 mm 2 mps 758 mmHg 50%
05:00 +27°C° 0 mm 2 mps 759 mmHg 56%
06:00 +26°C° 0 mm 3 mps 759 mmHg 62%
07:00 +28°C° 0 mm 3 mps 759 mmHg 59%
08:00 +29°C° 0 mm 3 mps 760 mmHg 55%
09:00 +31°C° 0 mm 3 mps 760 mmHg 52%
10:00 +33°C° 0 mm 3 mps 760 mmHg 48%
11:00 +34°C° 0 mm 4 mps 760 mmHg 44%
12:00 +36°C° 0 mm 4 mps 759 mmHg 40%
13:00 +36°C° 0 mm 3 mps 759 mmHg 39%
14:00 +36°C° 0 mm 3 mps 758 mmHg 38%
15:00 +37°C° 0 mm 3 mps 758 mmHg 37%
16:00 +36°C° 0 mm 3 mps 758 mmHg 38%
17:00 +35°C° 0 mm 2 mps 757 mmHg 40%
18:00 +34°C° 0 mm 2 mps 757 mmHg 41%
19:00 +32°C° 0 mm 1 mps 757 mmHg 46%
20:00 +30°C° 0 mm 1 mps 758 mmHg 52%
21:00 +26°C° 0 mm 0 mps 758 mmHg 57%
22:00 +26°C° 0 mm 0 mps 758 mmHg 57%
23:00 +26°C° 0 mm 0 mps 758 mmHg 58%

6 Agosto, Viernes

Tiempo Temperatura Precipitaciones Viento Presión Humedad
00:00 +25°C° 0 mm 0 mps 758 mmHg 58%
01:00 +25°C° 0 mm 0 mps 757 mmHg 57%
02:00 +25°C° 0 mm 0 mps 757 mmHg 56%
03:00 +25°C° 0 mm 0 mps 757 mmHg 55%
04:00 +27°C° 0 mm 1 mps 757 mmHg 54%
05:00 +27°C° 0 mm 1 mps 757 mmHg 54%
06:00 +27°C° 0 mm 1 mps 757 mmHg 53%
07:00 +30°C° 0 mm 1 mps 756 mmHg 46%
08:00 +32°C° 0 mm 1 mps 756 mmHg 39%
09:00 +35°C° 0 mm 2 mps 756 mmHg 32%
10:00 +36°C° 0 mm 2 mps 756 mmHg 30%
11:00 +38°C° 0 mm 3 mps 756 mmHg 29%
12:00 +39°C° 0 mm 3 mps 755 mmHg 27%
13:00 +39°C° 0 mm 3 mps 755 mmHg 26%
14:00 +39°C° 0 mm 3 mps 754 mmHg 26%
15:00 +39°C° 0 mm 3 mps 754 mmHg 25%
16:00 +39°C° 0 mm 3 mps 754 mmHg 26%
17:00 +38°C° 0 mm 3 mps 754 mmHg 27%
18:00 +38°C° 0 mm 3 mps 753 mmHg 27%
19:00 +36°C° 0 mm 3 mps 753 mmHg 27%
20:00 +34°C° 0 mm 3 mps 754 mmHg 27%
21:00 +33°C° 0 mm 3 mps 754 mmHg 27%
22:00 +31°C° 0 mm 3 mps 754 mmHg 27%
23:00 +30°C° 0 mm 4 mps 754 mmHg 27%

7 Agosto, Sábado

Tiempo Temperatura Precipitaciones Viento Presión Humedad
00:00 +30°C° 0 mm 4 mps 754 mmHg 27%
01:00 +29°C° 0 mm 4 mps 754 mmHg 28%
02:00 +28°C° 0 mm 4 mps 754 mmHg 29%
03:00 +28°C° 0 mm 4 mps 754 mmHg 31%
04:00 +27°C° 0 mm 4 mps 754 mmHg 31%
05:00 +27°C° 0 mm 4 mps 754 mmHg 32%
06:00 +27°C° 0 mm 4 mps 754 mmHg 33%
07:00 +29°C° 0 mm 4 mps 754 mmHg 28%
08:00 +32°C° 0 mm 5 mps 755 mmHg 24%
09:00 +34°C° 0 mm 5 mps 755 mmHg 19%
10:00 +36°C° 0 mm 6 mps 755 mmHg 18%
11:00 +38°C° 0 mm 6 mps 754 mmHg 17%
12:00 +39°C° 0 mm 6 mps 754 mmHg 17%
13:00 +40°C° 0 mm 6 mps 754 mmHg 17%
14:00 +40°C° 0 mm 7 mps 754 mmHg 18%
15:00 +41°C° 0 mm 7 mps 753 mmHg 18%
16:00 +40°C° 0 mm 7 mps 753 mmHg 18%
17:00 +39°C° 0 mm 6 mps 753 mmHg 19%
18:00 +38°C° 0 mm 6 mps 753 mmHg 19%
19:00 +35°C° 0 mm 5 mps 754 mmHg 22%
20:00 +33°C° 0 mm 4 mps 754 mmHg 26%
21:00 +32°C° 0 mm 4 mps 755 mmHg 29%
22:00 +30°C° 0 mm 4 mps 755 mmHg 30%
23:00 +29°C° 0 mm 4 mps 755 mmHg 32%
Mostrar más

Necesitamos Su Consentimiento

Meteoprog y nuestros Proveedores de Servicios pueden almacenar y acceder a sus datos personales como cookies, identificadores de dispositivo u otras tecnologías similares de su dispositivo y procesar dichos datos para personalizar contenido y anuncios, además de ofrecer funciones de redes sociales y analizar el tráfico.

  • Almacenar y/o acceder a información en su dispositivo

    Se puede almacenar o acceder a cookies, identificadores de dispositivo u otra información de su dispositivo para los fines anteriormente indicados.

  • Anuncios y contenido personalizados, medición de anuncios y contenido, percepciones del público, y desarrollo de productos

    Los anuncios y el contenido pueden personalizarse en base a su perfil. Se pueden añadir más datos para personalizar mejor los anuncios y contenidos. Se puede medir el rendimiento de los anuncios y contenidos. Se puede obtener la percepción sobre el público que ha visto los anuncios y contenidos. Dichos datos pueden usarse para desarrollar o mejorar la experiencia del usuario, sistemas y software.

Al hacer clic en ‘Estoy De Acuerdo’ usted permitirá el uso de las cookies, identificadores de dispositivo, balizas web u otras tecnologías similares indicadas. Su configuración puede cambiarse desde el navegador de su dispositivo.

Para ciertos fines, los intereses legítimos pueden ser considerados por encima del consentimiento. Puede leer más sobre ello en nuestra Política de Privacidad y Cookies.